Regional Weather Roundup
Issued by NWS

Home | Current Version | Previous Version | Text Only | Print | Product List | Glossary Off
Versions: 1 2 3 4 5 6 7 8 9 10 11 12 13 14 15 16 17 18 19 20 21 22 23 24 25 26 27 28 29 30 31 32 33 34 35 36 37 38 39 40 41 42 43 44 45 46 47 48 49 50

782
ASUS43 KLSX 101607
RWRMO

WEATHER SUMMARY FOR MISSOURI
NATIONAL WEATHER SERVICE SPRINGFIELD MO
1000 AM CST WED FEB 10 2016

NOTE: "FAIR" INDICATES FEW OR NO CLOUDS BELOW 12,000 FEET WITH NO
       SIGNIFICANT WEATHER AND/OR OBSTRUCTIONS TO VISIBILITY.
       CURRENT SKY AND/OR WEATHER CONDITIONS ARE NOT AVAILABLE FOR
       CHILLICOTHE AND FARMINGTON.

MOZ001>031-035>038-043-044-053-054-101700-
...NORTHERN AND WESTERN MISSOURI...

CITY           SKY/WX    TMP DP  RH WIND       PRES   REMARKS
KANSAS CTY INT PTSUNNY   31  14  49 S17       30.06F WCI  19
KANSAS C DTWN  CLOUDY    32  12  43 S13G22    30.11F WCI  22
LEE`S SUMMIT   SUNNY     30  12  47 S15G25    30.10F WCI  19
ST JOSEPH      CLOUDY    31  14  49 S17G23    30.06F WCI  19
CHILLICOTHE      N/A     23  17  78 S5        30.14F WCI  17
KIRKSVILLE     LGT SNOW  17  11  77 SW3       30.13S VSB 1

$$
MOZ066>068-077>081-088>096-101>105-101700-
...SOUTHWEST MISSOURI...

CITY           SKY/WX    TMP DP  RH WIND       PRES   REMARKS
SPRINGFIELD    SUNNY     30  10  43 SW12      30.16F WCI  20
JOPLIN         SUNNY     31  13  47 S14       30.18F WCI  21

$$
MOZ032>034-039>042-045>050-055>058-069>072-101700-
...CENTRAL MISSOURI...

CITY           SKY/WX    TMP DP  RH WIND       PRES   REMARKS
COLUMBIA       LGT SNOW  20  16  84 SW6       30.16S VSB 1   WCI  12
JEFFERSON CITY LGT SNOW  20  15  81 SW3       30.20S VSB 1
ROLLA          CLOUDY    20  12  71 SW7       30.15R WCI  11
SEDALIA        FLURRIES  25  17  72 S6        30.17S WCI  18
WHITEMAN AFB   CLOUDY    29  14  54 SW9       30.13F WCI  20
WARRENSBURG    CLOUDY    30  14  51 S10       30.15R WCI  21
OSAGE BEACH    CLOUDY    25  10  54 SW5       30.18S WCI  19

$$
MOZ051-052-059>065-101700-
...EAST CENTRAL MISSOURI...

CITY           SKY/WX    TMP DP  RH WIND       PRES   REMARKS
ST LOUIS INTL  CLOUDY    21   6  52 W9        30.19S WCI  11
SPIRIT OF STL  CLOUDY    20   8  60 W5        30.19S WCI  13
ST CHARLES     CLOUDY    18   7  62 W7        30.19S WCI   9

$$
MOZ072>076-082>087-097>100-106>115-101700-
...SOUTH CENTRAL AND SOUTHEAST MISSOURI...

CITY           SKY/WX    TMP DP  RH WIND       PRES   REMARKS
CAPE GIRARDEAU SUNNY     22   7  52 NW6       30.24S WCI  14
FARMINGTON     CLOUDY    21   7  54 NW6       30.18F WCI  13
POPLAR BLUFF   SUNNY     26   7  44 W8        30.25R WCI  18
WEST PLAINS    PTSUNNY   27   9  46 W7        30.20R WCI  19

$$



USA.gov is the U.S. government's official web portal to all federal, state and local government web resources and services.